QPF
0.00 0.00 0.00 0.00 0.00 0.00 0.00 0.00 0.00 0.00 0.00 0.00 0.00 0.00 0.00 0.00 0.00 0.00 0.00 0.00 0.00 0.00 0.00 0.00 0.00 0.00 0.00 0.00 0.00 0.00 0.00 0.00 0.00 0.00 0.00 0.00 0.00 0.00 0.00 0.00 0.00 0.00
0.00 0.00 0.00 0.00 0.00 0.00 0.00 0.00 0.00 0.00 0.00 0.00 0.00 0.00 0.00 0.00 0.00 0.00 0.00 0.00 0.00 0.00 0.00 0.00 0.00 0.00 0.00 0.00 0.00 0.00 0.00 0.00 0.00 0.00 0.00 0.00 0.00 0.00 0.00 0.00 0.00 0.00
0.00 0.00 0.00 0.00 0.00 0.00 0.00 0.00 0.00 0.00 0.00 0.00 0.00 0.00 0.00 0.00 0.00 0.00 0.00 0.00 0.00 0.00 0.00 0.00 0.00 0.00 0.00 0.00 0.00 0.00 0.00 0.00 0.00 0.00 0.00 0.00 0.00 0.00 0.00 0.00 0.00 0.00
0.00 0.00 0.00 0.00 0.00 0.00 0.00 0.00 0.00 0.00 0.00 0.00 0.00 0.00 0.00 0.00 0.00 0.00 0.00 0.00 0.00 0.00 0.00 0.00 0.00 0.00 0.00 0.00 0.00 0.00 0.00 0.00 0.00 0.00 0.00 0.00 0.00 0.00 0.00 0.00 0.00 0.00
0.00 0.00 0.00 0.00 0.00 0.00 0.00 0.00 0.00 0.00 0.00 0.00 0.00 0.00 0.00 0.00 0.00 0.00 0.00 0.00 0.00 0.00 0.00 0.00 0.00 0.00 0.00 0.00 0.00 0.00 0.00 0.00 0.00 0.00 0.00 0.00 0.00 0.00 0.00 0.00 0.00 0.00
0.00 0.00 0.00 0.00 0.00 0.00 0.00 0.00 0.00 0.00 0.00 0.00 0.00 0.00 0.00 0.00 0.00 0.00 0.00 0.00 0.00 0.00 0.00 0.00 0.00 0.00 0.00 0.00 0.00 0.00 0.00 0.00 0.00 0.00 0.00 0.00 0.00 0.00 0.00 0.00 0.00 0.00
0.00 0.00 0.00 0.00 0.00 0.00 0.00 0.00 0.00 0.00 0.00 0.00 0.00 0.00 0.00 0.00 0.00 0.00 0.00 0.00 0.00 0.00 0.00 0.00 0.00 0.00 0.00 0.00 0.00 0.00 0.00 0.00 0.00 0.00 0.00 0.00 0.00 0.00 0.00 0.00 0.00 0.00
0.00 0.00 0.00 0.00 0.00 0.00 0.00 0.00 0.00 0.00 0.00 0.00 0.00 0.00 0.00 0.00 0.00 0.00 0.00 0.00 0.00 0.00 0.00 0.00 0.00 0.00 0.00 0.00 0.00 0.00 0.00 0.00 0.00 0.00 0.00 0.00 0.00 0.00 0.00 0.00 0.00 0.00
0.00 0.00 0.00 0.00 0.00 0.00 0.00 0.00 0.00 0.00 0.00 0.00 0.00 0.00 0.00 0.00 0.00 0.00 0.00 0.00 0.00 0.00 0.00 0.00 0.00 0.00 0.00 0.00 0.00 0.00 0.00 0.00 0.00 0.00 0.00 0.00 0.00 0.00 0.00 0.00 0.00 0.00
0.00 0.00 0.00 0.00 0.00 0.00 0.00 0.00 0.00 0.00 0.00 0.00 0.00 0.00 0.00 0.00 0.00 0.00 0.00 0.00 0.00 0.00 0.00 0.00 0.00 0.00 0.00 0.00 0.00 0.00 0.00 0.00 0.00 0.00 0.00 0.00 0.00 0.00 0.00 0.00 0.00 0.00
0.00 0.00 0.00 0.00 0.00 0.00 0.00 0.00 0.00 0.00 0.00 0.00 0.00 0.00 0.00 0.00 0.00 0.00 0.00 0.00 0.00 0.00 0.00 0.00 0.00 0.00 0.00 0.00 0.00 0.00 0.00 0.00 0.00 0.00 0.00 0.00 0.00 0.00 0.00 0.00 0.00 0.00
0.00 0.00 0.00 0.00 0.00 0.00 0.00 0.00 0.00 0.00 0.00 0.00 0.00 0.00 0.00 0.00 0.00 0.00 0.00 0.00 0.00 0.00 0.00 0.00 0.00 0.00 0.00 0.00 0.00 0.00 0.00 0.00 0.00 0.00 0.00 0.00 0.00 0.00 0.00 0.00 0.00 0.00
0.00 0.00 0.00 0.00 0.00 0.00 0.00 0.00 0.00 0.00 0.00 0.00 0.00 0.00 0.00 0.00 0.00 0.00 0.00 0.00 0.00 0.00 0.00 0.00 0.00 0.00 0.00 0.00 0.00 0.00 0.00 0.00 0.00 0.00 0.00 0.00 0.00 0.00 0.00 0.00 0.00 0.00
0.03 0.00 0.01 0.00 0.00 0.00 0.00 0.00 0.00 0.00 0.00 0.00 0.00 0.00 0.00 0.00 0.00 0.00 0.00 0.00 0.00 0.00 0.00 0.00 0.00 0.00 0.00 0.00 0.00 0.00 0.00 0.00 0.00 0.00 0.00 0.00 0.00 0.00 0.00 0.00 0.00 0.00
0.10 0.03 0.00 0.00 0.00 0.00 0.00 0.00 0.00 0.00 0.00 0.00 0.00 0.00 0.00 0.00 0.00 0.00 0.00 0.00 0.00 0.00 0.00 0.00 0.00 0.00 0.00 0.00 0.00 0.00 0.00 0.00 0.00 0.00 0.00 0.00 0.00 0.00 0.00 0.00 0.00 0.00
0.32 0.21 0.05 0.00 0.00 0.00 0.00 0.00 0.00 0.00 0.00 0.00 0.00 0.00 0.00 0.00 0.00 0.00 0.00 0.00 0.00 0.00 0.00 0.00 0.00 0.00 0.00 0.00 0.00 0.00 0.00 0.00 0.00 0.00 0.00 0.00 0.00 0.00 0.00 0.00 0.00 0.00
0.36 0.27 0.23 0.10 0.08 0.01 0.00 0.00 0.00 0.00 0.00 0.00 0.00 0.00 0.00 0.00 0.00 0.00 0.00 0.00 0.00 0.00 0.00 0.00 0.00 0.00 0.00 0.00 0.00 0.00 0.00 0.00 0.00 0.00 0.00 0.00 0.00 0.00 0.00 0.00 0.00 0.00
0.22 0.15 0.18 0.16 0.23 0.12 0.01 0.00 0.00 0.00 0.00 0.00 0.00 0.00 0.00 0.00 0.00 0.00 0.00 0.00 0.00 0.00 0.00 0.00 0.00 0.00 0.00 0.00 0.00 0.00 0.00 0.00 0.00 0.00 0.00 0.00 0.00 0.00 0.00 0.00 0.00 0.00
0.01 0.10 0.05 0.07 0.05 0.08 0.00 0.00 0.00 0.00 0.00 0.00 0.00 0.00 0.00 0.00 0.00 0.00 0.00 0.00 0.00 0.00 0.00 0.00 0.00 0.00 0.00 0.00 0.00 0.00 0.00 0.00 0.00 0.00 0.00 0.00 0.00 0.00 0.00 0.00 0.00 0.00
0.01 0.00 0.00 0.00 0.00 0.00 0.00 0.00 0.00 0.00 0.00 0.00 0.00 0.00 0.00 0.00 0.00 0.00 0.00 0.00 0.00 0.00 0.00 0.00 0.00 0.00 0.00 0.00 0.00 0.00 0.00 0.00 0.00 0.00 0.00 0.00 0.00 0.00 0.00 0.00 0.00 0.00
0.00 0.00 0.00 0.00 0.00 0.00 0.00 0.00 0.00 0.00 0.00 0.00 0.00 0.00 0.00 0.00 0.00 0.00 0.00 0.00 0.00 0.00 0.00 0.00 0.00 0.00 0.00 0.00 0.00 0.00 0.00 0.00 0.00 0.00 0.00 0.00 0.00 0.00 0.00 0.00 0.00 0.00
0.00 0.00 0.00 0.00 0.00 0.00 0.03 0.02 0.01 0.01 0.01 0.02 0.01 0.00 0.00 0.00 0.00 0.00 0.00 0.00 0.00 0.00 0.00 0.00 0.00 0.00 0.00 0.00 0.00 0.00 0.00 0.00 0.00 0.00 0.00 0.00 0.00 0.00 0.00 0.00 0.00 0.00
0.00 0.00 0.00 0.00 0.00 0.00 0.00 0.00 0.00 0.00 0.00 0.01 0.06 0.06 0.03 0.00 0.00 0.00 0.00 0.00 0.00 0.00 0.00 0.00 0.00 0.00 0.00 0.00 0.00 0.00 0.00 0.00 0.00 0.00 0.00 0.00 0.00 0.00 0.00 0.00 0.00 0.00
0.00 0.00 0.00 0.00 0.00 0.00 0.00 0.00 0.00 0.00 0.00 0.00 0.00 0.00 0.00 0.00 0.00 0.00 0.00 0.00 0.00 0.00 0.00 0.00 0.00 0.00 0.00 0.00 0.00 0.00 0.00 0.00 0.00 0.00 0.00 0.00 0.00 0.00 0.00 0.00 0.00 0.00
0.00 0.00 0.00 0.00 0.00 0.00 0.00 0.00 0.00 0.00 0.00 0.00 0.00 0.00 0.00 0.00 0.00 0.00 0.00 0.00 0.00 0.00 0.00 0.00 0.00 0.00 0.00 0.00 0.00 0.00 0.00 0.00 0.00 0.00 0.01 0.05 0.01 0.02 0.01 0.07 0.03 0.00
0.00 0.00 0.00 0.00 0.00 0.00 0.00 0.00 0.00 0.00 0.00 0.00 0.00 0.00 0.00 0.00 0.00 0.00 0.00 0.00 0.00 0.00 0.00 0.00 0.00 0.00 0.00 0.00 0.00 0.00 0.00 0.00 0.00 0.00 0.00 0.04 0.05 0.01 0.01 0.00 0.00 0.00
MSLP
1015.92 1016.12 1016.36 1016.60 1016.88 1017.04 1017.16 1017.36 1017.48 1017.72 1018.00 1018.20 1018.40 1018.52 1018.56 1018.68 1018.72 1018.80 1018.84 1018.88 1018.92 1019.00 1019.00 1019.08 1019.28 1019.48 1019.64 1019.68 1019.72 1019.80 1019.88 1019.96 1020.04 1020.08 1020.12 1020.20 1020.24 1020.28 1020.44 1020.48 1020.60 1020.76
1016.04 1016.20 1016.40 1016.56 1016.84 1016.92 1017.00 1017.04 1017.36 1017.68 1018.00 1018.16 1018.36 1018.44 1018.52 1018.64 1018.72 1018.76 1018.88 1018.96 1018.96 1019.00 1019.00 1019.16 1019.40 1019.56 1019.72 1019.84 1019.96 1020.12 1020.24 1020.20 1020.24 1020.16 1020.24 1020.28 1020.36 1020.28 1020.44 1020.56 1020.76 1020.84
1016.08 1016.28 1016.48 1016.64 1016.84 1016.92 1017.00 1017.16 1017.44 1017.72 1018.00 1018.20 1018.28 1018.36 1018.56 1018.64 1018.76 1018.84 1018.96 1019.08 1019.16 1019.20 1019.20 1019.28 1019.40 1019.56 1019.72 1019.88 1020.00 1020.20 1020.36 1020.40 1020.44 1020.32 1020.28 1020.36 1020.44 1020.60 1020.76 1020.72 1020.76 1020.80
1016.12 1016.28 1016.48 1016.64 1016.76 1016.96 1017.08 1017.36 1017.68 1017.92 1018.12 1018.28 1018.36 1018.40 1018.52 1018.68 1018.84 1019.00 1019.08 1019.12 1019.24 1019.32 1019.32 1019.40 1019.48 1019.64 1019.84 1020.00 1020.08 1020.24 1020.36 1020.44 1020.48 1020.44 1020.48 1020.52 1020.56 1020.60 1020.76 1020.80 1020.88 1020.88
1016.16 1016.32 1016.44 1016.60 1016.80 1016.96 1017.12 1017.44 1017.76 1018.00 1018.12 1018.28 1018.40 1018.52 1018.64 1018.84 1018.96 1019.08 1019.16 1019.28 1019.28 1019.40 1019.44 1019.52 1019.64 1019.84 1020.04 1020.20 1020.28 1020.40 1020.48 1020.60 1020.56 1020.56 1020.64 1020.76 1020.76 1020.80 1020.92 1020.84 1021.00 1021.12
1016.16 1016.24 1016.40 1016.60 1016.84 1017.00 1017.28 1017.52 1017.72 1017.92 1018.16 1018.28 1018.44 1018.56 1018.68 1018.80 1018.96 1019.12 1019.24 1019.32 1019.40 1019.48 1019.52 1019.56 1019.76 1020.00 1020.16 1020.36 1020.44 1020.56 1020.64 1020.72 1020.76 1020.72 1020.80 1020.88 1020.88 1020.88 1020.96 1021.08 1021.20 1021.36
1016.16 1016.24 1016.48 1016.68 1016.96 1017.08 1017.32 1017.52 1017.72 1017.88 1018.04 1018.24 1018.40 1018.56 1018.68 1018.84 1019.00 1019.08 1019.20 1019.32 1019.40 1019.48 1019.56 1019.68 1019.88 1020.08 1020.24 1020.40 1020.60 1020.76 1020.84 1020.84 1020.84 1020.84 1020.88 1020.92 1020.92 1021.12 1021.12 1021.20 1021.40 1021.56
1016.20 1016.28 1016.48 1016.76 1017.04 1017.24 1017.44 1017.64 1017.80 1017.92 1018.04 1018.24 1018.44 1018.56 1018.64 1018.80 1018.96 1019.00 1019.12 1019.28 1019.44 1019.56 1019.60 1019.72 1019.84 1020.00 1020.24 1020.44 1020.68 1020.84 1020.96 1020.96 1021.04 1021.08 1021.04 1021.12 1021.12 1021.24 1021.28 1021.32 1021.44 1021.56
1016.24 1016.44 1016.64 1016.92 1017.16 1017.40 1017.56 1017.72 1017.84 1017.92 1018.00 1018.24 1018.40 1018.48 1018.56 1018.72 1018.84 1018.92 1019.08 1019.28 1019.48 1019.60 1019.64 1019.72 1019.80 1019.96 1020.20 1020.36 1020.52 1020.72 1020.92 1021.08 1021.16 1021.16 1021.24 1021.32 1021.32 1021.40 1021.40 1021.40 1021.44 1021.56
1016.40 1016.60 1016.84 1017.12 1017.36 1017.48 1017.64 1017.72 1017.80 1017.92 1017.96 1018.16 1018.32 1018.40 1018.52 1018.64 1018.72 1018.84 1019.04 1019.36 1019.56 1019.68 1019.72 1019.80 1019.88 1020.04 1020.12 1020.16 1020.36 1020.56 1020.76 1020.96 1021.04 1021.08 1021.16 1021.24 1021.32 1021.44 1021.48 1021.48 1021.60 1021.68
1016.56 1016.80 1017.08 1017.32 1017.48 1017.56 1017.68 1017.76 1017.80 1017.88 1017.96 1018.08 1018.24 1018.44 1018.44 1018.64 1018.72 1018.72 1019.04 1019.28 1019.52 1019.68 1019.84 1019.92 1020.00 1020.08 1020.16 1020.16 1020.28 1020.36 1020.52 1020.68 1020.76 1020.88 1021.00 1021.08 1021.20 1021.28 1021.40 1021.52 1021.64 1021.76
1016.76 1017.04 1017.28 1017.44 1017.56 1017.64 1017.72 1017.72 1017.80 1017.84 1017.96 1018.04 1018.16 1018.32 1018.44 1018.60 1018.68 1018.68 1018.88 1019.20 1019.36 1019.52 1019.68 1019.84 1019.88 1020.04 1020.12 1020.20 1020.28 1020.36 1020.36 1020.44 1020.52 1020.64 1020.80 1021.00 1021.12 1021.16 1021.28 1021.36 1021.52 1021.64
1017.08 1017.24 1017.40 1017.56 1017.60 1017.64 1017.68 1017.68 1017.68 1017.72 1017.84 1018.00 1018.00 1018.16 1018.36 1018.52 1018.60 1018.68 1018.80 1019.00 1019.20 1019.40 1019.52 1019.64 1019.76 1019.88 1020.00 1020.08 1020.12 1020.28 1020.36 1020.40 1020.48 1020.56 1020.72 1020.84 1020.96 1021.00 1021.04 1021.20 1021.40 1021.52
1018.08 1017.36 1017.40 1017.52 1017.60 1017.60 1017.60 1017.60 1017.64 1017.68 1017.72 1017.80 1017.88 1018.04 1018.16 1018.32 1018.52 1018.64 1018.80 1018.96 1018.96 1019.20 1019.36 1019.44 1019.56 1019.72 1019.92 1019.96 1020.00 1020.12 1020.20 1020.36 1020.36 1020.48 1020.56 1020.60 1020.76 1020.84 1020.96 1021.12 1021.24 1021.40
1019.24 1018.44 1017.60 1017.60 1017.56 1017.60 1017.60 1017.60 1017.56 1017.56 1017.64 1017.76 1017.88 1018.00 1018.04 1018.12 1018.32 1018.52 1018.68 1018.92 1018.96 1019.00 1019.28 1019.36 1019.44 1019.64 1019.80 1019.92 1020.00 1020.08 1020.12 1020.24 1020.24 1020.28 1020.40 1020.56 1020.76 1020.84 1020.92 1021.04 1021.16 1021.28
1018.16 1018.96 1019.16 1018.32 1017.88 1017.80 1017.72 1017.72 1017.72 1017.76 1017.76 1017.80 1017.92 1018.04 1018.08 1018.12 1018.24 1018.40 1018.56 1018.68 1018.88 1019.00 1019.16 1019.32 1019.40 1019.48 1019.56 1019.64 1019.68 1019.88 1020.00 1020.04 1020.12 1020.16 1020.28 1020.52 1020.68 1020.84 1020.92 1020.96 1020.96 1021.12
1018.08 1018.28 1018.88 1019.48 1019.32 1018.20 1017.92 1017.88 1017.92 1017.92 1018.04 1018.08 1018.08 1018.12 1018.16 1018.24 1018.40 1018.52 1018.56 1018.56 1018.60 1018.80 1019.04 1019.16 1019.28 1019.24 1019.28 1019.36 1019.44 1019.52 1019.68 1019.92 1020.04 1020.16 1020.28 1020.52 1020.56 1020.68 1020.80 1020.96 1021.04 1021.12
1018.40 1018.40 1018.64 1019.08 1019.52 1019.56 1018.36 1018.08 1018.12 1018.16 1018.20 1018.24 1018.32 1018.40 1018.44 1018.36 1018.40 1018.48 1018.60 1018.64 1018.64 1018.84 1019.16 1019.20 1019.12 1019.00 1018.96 1018.96 1019.16 1019.32 1019.40 1019.60 1019.80 1020.04 1020.16 1020.36 1020.40 1020.52 1020.72 1020.84 1020.96 1021.04
1018.40 1018.48 1018.64 1019.04 1019.52 1019.32 1018.44 1018.24 1018.24 1018.32 1018.32 1018.36 1018.48 1018.60 1018.60 1018.68 1018.68 1018.56 1018.68 1018.76 1018.88 1019.04 1019.04 1018.96 1018.80 1018.88 1019.12 1019.16 1019.04 1019.00 1019.08 1019.24 1019.60 1019.72 1019.96 1020.12 1020.24 1020.36 1020.56 1020.76 1020.92 1021.00
1018.72 1018.80 1018.68 1018.64 1018.48 1018.40 1018.40 1018.36 1018.36 1018.40 1018.48 1018.48 1018.48 1018.52 1018.68 1018.80 1018.76 1018.80 1018.80 1018.92 1019.00 1019.04 1019.04 1018.96 1018.92 1019.20 1019.00 1018.92 1019.04 1019.08 1019.00 1019.12 1019.32 1019.52 1019.64 1019.80 1020.00 1020.20 1020.44 1020.64 1020.80 1020.92
1019.00 1018.88 1018.96 1019.00 1018.88 1018.76 1018.72 1018.68 1018.64 1018.60 1018.56 1018.60 1018.64 1018.72 1018.76 1018.80 1018.84 1018.88 1018.88 1018.96 1019.04 1019.12 1019.16 1019.08 1018.96 1019.16 1019.04 1019.08 1019.16 1019.40 1019.44 1019.04 1019.12 1019.32 1019.48 1019.64 1019.80 1020.04 1020.28 1020.48 1020.72 1020.84
1019.28 1019.20 1019.20 1019.20 1019.12 1019.00 1018.96 1018.96 1018.92 1018.92 1018.80 1018.80 1018.72 1018.68 1018.64 1018.68 1018.72 1018.72 1018.76 1018.88 1019.00 1019.08 1019.12 1019.04 1018.92 1019.04 1019.20 1019.16 1019.20 1019.28 1019.44 1019.40 1019.20 1019.28 1019.40 1019.56 1019.72 1019.88 1020.08 1020.24 1020.40 1020.56
1019.52 1019.40 1019.24 1019.16 1019.16 1019.08 1019.04 1019.00 1018.96 1018.92 1018.92 1018.84 1018.84 1018.88 1018.92 1018.76 1018.60 1018.56 1018.52 1018.60 1018.76 1018.92 1019.00 1019.00 1018.88 1018.80 1018.96 1019.20 1019.28 1019.28 1019.32 1019.40 1019.48 1019.48 1019.52 1019.56 1019.68 1019.76 1019.84 1019.96 1020.12 1020.28
1019.88 1019.80 1019.72 1019.60 1019.44 1019.36 1019.28 1019.20 1019.08 1018.92 1018.88 1018.84 1018.76 1018.52 1018.24 1018.12 1018.12 1018.08 1018.12 1018.24 1018.40 1018.56 1018.68 1018.88 1018.88 1018.72 1018.68 1018.84 1019.04 1019.32 1019.28 1019.24 1019.36 1019.52 1019.64 1019.76 1019.88 1019.96 1020.04 1020.08 1020.12 1020.12
1020.56 1020.48 1020.40 1020.20 1020.04 1019.88 1019.68 1019.52 1019.40 1019.32 1019.12 1019.00 1018.96 1018.92 1018.76 1018.52 1018.36 1018.40 1018.40 1018.44 1018.36 1018.32 1018.32 1018.48 1018.60 1018.60 1018.60 1018.56 1018.72 1019.16 1019.40 1019.44 1019.44 1019.52 1019.64 1019.72 1019.72 1019.88 1019.92 1019.96 1020.12 1020.24
1021.00 1020.88 1020.72 1020.60 1020.44 1020.32 1020.16 1020.04 1019.80 1019.52 1019.32 1019.24 1019.12 1019.08 1019.00 1018.80 1018.72 1018.68 1018.64 1018.48 1018.44 1018.52 1018.44 1018.36 1018.36 1018.36 1018.36 1018.36 1018.40 1018.76 1019.12 1019.20 1019.32 1019.40 1019.44 1019.60 1019.76 1019.80 1019.80 1020.20 1020.44 1020.60
Thickness
5638 5637 5636 5635 5633 5632 5633 5633 5632 5630 5629 5627 5626 5625 5625 5624 5623 5623 5621 5621 5620 5619 5618 5617 5615 5613 5612 5612 5612 5612 5612 5612 5612 5611 5611 5611 5610 5610 5609 5608 5607 5606
5636 5636 5635 5633 5632 5632 5633 5633 5632 5630 5628 5626 5625 5624 5624 5623 5621 5621 5620 5619 5618 5617 5616 5614 5612 5611 5610 5610 5609 5608 5608 5608 5608 5609 5609 5609 5608 5608 5607 5605 5604 5604
5635 5634 5634 5632 5631 5631 5631 5631 5629 5627 5626 5624 5624 5623 5622 5621 5620 5619 5618 5617 5615 5614 5614 5612 5610 5609 5608 5607 5606 5605 5604 5604 5605 5606 5606 5606 5605 5604 5604 5603 5602 5602
5634 5633 5633 5631 5630 5630 5629 5629 5626 5624 5623 5622 5622 5621 5620 5619 5617 5616 5615 5614 5614 5612 5611 5610 5608 5607 5605 5604 5604 5603 5602 5602 5602 5602 5602 5602 5602 5601 5601 5600 5600 5599
5633 5632 5632 5630 5629 5628 5627 5625 5623 5622 5621 5620 5620 5619 5618 5617 5615 5614 5613 5612 5611 5610 5608 5607 5606 5604 5602 5601 5601 5600 5600 5599 5599 5600 5599 5598 5598 5598 5597 5597 5596 5595
5632 5631 5631 5629 5627 5626 5624 5622 5621 5620 5619 5618 5617 5616 5615 5615 5613 5612 5610 5610 5609 5607 5606 5605 5603 5602 5600 5598 5597 5597 5596 5596 5596 5596 5596 5595 5595 5595 5594 5593 5592 5591
5630 5629 5629 5626 5625 5623 5622 5620 5618 5618 5617 5616 5615 5614 5613 5613 5611 5611 5609 5608 5607 5605 5604 5603 5601 5599 5597 5595 5594 5593 5592 5592 5593 5593 5593 5593 5593 5591 5591 5590 5589 5588
5628 5627 5626 5624 5622 5620 5619 5617 5616 5615 5615 5614 5612 5611 5611 5610 5609 5609 5608 5606 5605 5604 5602 5601 5600 5598 5596 5594 5592 5590 5589 5589 5589 5589 5589 5589 5589 5588 5588 5587 5587 5586
5623 5623 5621 5620 5617 5616 5615 5614 5613 5613 5612 5611 5610 5609 5609 5608 5607 5607 5606 5604 5603 5601 5601 5600 5598 5597 5595 5593 5591 5589 5588 5587 5587 5587 5586 5586 5586 5585 5585 5585 5585 5585
5618 5617 5616 5614 5613 5612 5612 5611 5611 5610 5610 5609 5608 5607 5607 5606 5606 5605 5604 5601 5600 5598 5598 5597 5596 5595 5594 5593 5592 5590 5588 5587 5586 5585 5585 5584 5584 5583 5582 5583 5582 5582
5612 5611 5609 5608 5607 5608 5608 5608 5607 5608 5608 5607 5606 5605 5605 5604 5604 5603 5602 5599 5598 5596 5595 5594 5594 5593 5592 5592 5591 5589 5589 5587 5586 5585 5584 5583 5582 5582 5581 5580 5580 5579
5605 5603 5603 5603 5603 5604 5603 5605 5605 5606 5605 5605 5604 5604 5603 5602 5602 5601 5600 5598 5596 5595 5594 5593 5593 5591 5591 5591 5589 5588 5588 5587 5587 5586 5584 5582 5581 5581 5580 5579 5578 5577
5597 5598 5598 5597 5598 5600 5600 5601 5603 5603 5604 5603 5603 5603 5602 5601 5600 5599 5598 5597 5595 5595 5593 5593 5592 5591 5590 5590 5589 5588 5587 5586 5586 5584 5583 5582 5581 5581 5579 5579 5577 5576
5586 5591 5594 5594 5594 5596 5597 5598 5600 5601 5602 5602 5602 5601 5601 5600 5598 5597 5596 5595 5595 5594 5593 5592 5592 5590 5589 5588 5588 5587 5586 5585 5585 5584 5584 5583 5582 5580 5579 5578 5576 5576
5581 5584 5588 5590 5592 5594 5594 5596 5598 5598 5599 5599 5599 5598 5598 5598 5597 5596 5594 5593 5593 5593 5592 5591 5590 5589 5588 5587 5587 5586 5585 5585 5584 5584 5584 5583 5581 5580 5578 5577 5576 5575
5584 5582 5580 5582 5587 5591 5593 5594 5594 5595 5595 5595 5596 5595 5595 5595 5594 5593 5592 5591 5591 5590 5589 5589 5588 5587 5587 5586 5586 5585 5584 5584 5583 5583 5582 5581 5579 5578 5577 5577 5576 5574
5584 5583 5579 5577 5578 5584 5589 5591 5590 5591 5592 5591 5592 5592 5591 5591 5590 5589 5589 5589 5589 5589 5587 5586 5586 5586 5586 5586 5585 5585 5583 5582 5581 5580 5579 5578 5578 5577 5575 5575 5574 5572
5579 5580 5580 5576 5573 5575 5582 5587 5586 5587 5587 5587 5587 5587 5586 5587 5586 5585 5585 5586 5586 5585 5584 5583 5584 5585 5585 5584 5584 5583 5582 5581 5580 5578 5578 5576 5576 5575 5573 5572 5572 5570
5576 5576 5576 5575 5573 5573 5578 5582 5583 5583 5584 5584 5583 5582 5582 5581 5581 5581 5581 5581 5581 5581 5580 5581 5582 5581 5581 5581 5581 5582 5581 5580 5578 5576 5576 5574 5573 5572 5570 5569 5568 5567
5571 5572 5572 5572 5572 5574 5575 5577 5578 5579 5579 5579 5579 5578 5578 5576 5576 5576 5576 5576 5577 5576 5576 5577 5577 5576 5576 5577 5577 5577 5577 5577 5576 5575 5574 5572 5571 5569 5567 5565 5564 5563
5563 5564 5565 5565 5566 5567 5568 5569 5571 5572 5573 5573 5574 5574 5573 5573 5572 5572 5572 5572 5572 5571 5571 5572 5572 5571 5570 5570 5570 5570 5570 5573 5573 5572 5571 5569 5568 5566 5564 5562 5561 5559
5554 5555 5556 5558 5559 5560 5562 5562 5563 5564 5566 5566 5567 5567 5567 5568 5568 5568 5567 5567 5567 5567 5566 5566 5567 5566 5564 5564 5564 5564 5564 5566 5567 5567 5567 5565 5563 5562 5560 5559 5557 5556
5546 5548 5550 5551 5553 5554 5555 5556 5557 5558 5558 5559 5560 5561 5562 5563 5563 5564 5564 5564 5563 5562 5561 5561 5561 5561 5560 5559 5558 5559 5559 5559 5559 5560 5560 5559 5558 5556 5556 5555 5553 5553
5537 5539 5540 5542 5544 5545 5546 5548 5549 5550 5551 5552 5553 5555 5557 5559 5560 5561 5561 5560 5559 5559 5558 5557 5556 5556 5556 5556 5554 5553 5553 5554 5553 5552 5552 5552 5550 5550 5550 5549 5548 5547
5528 5529 5530 5531 5533 5535 5536 5538 5539 5541 5543 5544 5545 5546 5549 5551 5553 5553 5553 5553 5553 5554 5554 5553 5552 5551 5552 5551 5550 5548 5547 5547 5546 5545 5545 5544 5543 5542 5542 5541 5539 5537
5519 5520 5521 5523 5524 5526 5527 5528 5530 5532 5533 5535 5536 5537 5538 5540 5542 5542 5543 5544 5544 5546 5547 5548 5548 5547 5547 5547 5546 5544 5542 5541 5540 5539 5539 5538 5536 5536 5535 5533 5530 5528